Regional Weather Roundup
Issued by NWS

Home | Current Version | Previous Version | Text Only | Print | Product List | Glossary Off
Versions: 1 2 3 4 5 6 7 8 9 10 11 12 13 14 15 16 17 18 19 20 21 22 23 24 25 26 27 28 29 30 31 32 33 34 35 36 37 38 39 40 41 42 43 44 45 46 47 48 49 50

424
ASUS45 KBOU 131207
RWRCO

WEATHER ROUNDUP FOR COLORADO
NATIONAL WEATHER SERVICE DENVER/BOULDER CO
500 AM MST SAT FEB 13 2016

NOTE: "FAIR" INDICATES FEW OR NO CLOUDS BELOW 12000 FEET WITH NO
SIGNIFICANT WEATHER AND/OR OBSTRUCTIONS TO VISIBILITY.

COZ001>005-013-030-031-131300-
...NORTHWEST COLORADO...

CITY           SKY/WX    TMP DP  RH WIND       PRES   REMARKS
CRAIG          FAIR       6   2  83 CALM      30.25S
HAYDEN         FAIR      21  12  68 E12       30.23S WCI   9
MEEKER         FAIR      15  10  80 N3        30.24F
MOUNT WERNER   NOT AVBL
STEAMBOAT SPGS FAIR      12  10  91 CALM      30.24F
WALDEN         FAIR      30  19  64 SE8       30.23F WCI  23
$$

COZ006>008-011-131300-
...WEST CENTRAL VALLEYS...

CITY           SKY/WX    TMP DP  RH WIND       PRES   REMARKS
GRAND JUNCTION FAIR      26  23  88 E3        30.27F
MONTROSE       FAIR      25  20  81 SE8       30.30S WCI  16
EAGLE          FAIR      18  18 100 CALM      30.32F
RIFLE          FAIR      20  14  77 CALM      30.29S
DELTA          FAIR      28  25  87 CALM      30.29S
NUCLA          FAIR      32  21  64 SE3       30.32S
$$

COZ017>023-064>068-131300-
...SOUTHWEST COLORADO...

CITY           SKY/WX    TMP DP  RH WIND       PRES   REMARKS
DURANGO        FAIR      23  18  81 N5        30.32S WCI  17
CORTEZ         FAIR      20  17  88 E3        30.31R
PAGOSA SPRINGS FAIR      20  18  93 CALM      30.34S
TELLURIDE      FAIR      34  17  48 SE7       30.38S WCI  28
WOLF CREEK PAS FAIR      30  14  51 SW28G33   30.46F WCI  16
$$

COZ009-010-012-014-032>034-037-058>063-131300-
...CENTRAL COLORADO...

CITY           SKY/WX    TMP DP  RH WIND       PRES   REMARKS
ASPEN          FAIR      25  17  72 SE6       30.27F WCI  18
BUENA VISTA    FAIR      25  20  81 W6        30.27F WCI  18
COPPER MTN     NOT AVBL
BERTHOUD PASS  FAIR      25  14  63 NW38G45   30.30F WCI   6
COTTONWOOD PAS FAIR      41  14  33 NW8G25    30.30F
GUNNISON       FAIR      -6 N/A N/A CALM      30.43S
KREMMLING      FAIR       0  -6  78 CALM      30.32S
LEADVILLE      FAIR      30  13  49 N7        30.30F WCI  23
MONARCH PASS   FAIR      27  14  59 W30       30.48S WCI  10
SALIDA         NOT AVBL
SUNLIGHT       FAIR      30  16  55 CALM      30.38F
WILKERSON PASS FAIR      30  16  55 SW18G24   30.32S WCI  18
$$

COZ069>075-131300-
...SAN LUIS VALLEY/SANGRE DE CRISTO MOUNTAINS...

CITY           SKY/WX    TMP DP  RH WIND       PRES   REMARKS
ALAMOSA        FAIR      21  17  84 NW3       30.31F
LA VETA PASS   FAIR      30  18  59 MISG      30.33F
SAGUACHE       FAIR      28  21  74 NW8       30.32S WCI  20
$$

COZ035-036-038>040-131300-
...NORTHERN COLORADO FRONT RANGE...

CITY           SKY/WX    TMP DP  RH WIND       PRES   REMARKS
DENVER INTL AP FOG       28  27  96 W3        30.10F VSB 1/16
DMNS CITY PARK   N/A     29  29 100 MISG      30.10F
AURORA         MOCLDY    27  27 100 S7        30.09F FOG     WCI  19
FRONT RANGE AP FOG       28  28 100 N3        30.10F VSB 1
ERIE MUNI ARPT FOG       30  30 100 CALM      30.11F VSB 1/4
BOULDER MUN AP FOG       30  30 100 W3        30.10S VSB 1/4
CENTENNIAL     MOCLDY    33  29  85 CALM      30.09F
BROOMFIELD     FOG       30  30 100 CALM      30.09F VSB<1/4
FORT COLLINS   CLOUDY    30  28  93 CALM      30.12F VSB 1/4
LONGMONT       FOG       32  32  98 E6        30.12F VSB 1/2 WCI  27
$$

COZ041-046-047-076>085-087-088-131300-
...PIKES PEAK/PALMER DIVIDE AND SOUTHERN FOOTHILLS...

CITY           SKY/WX    TMP DP  RH WIND       PRES   REMARKS
COLO. SPRINGS  MOCLDY    31  26  82 CALM      30.14F
A. F. ACADEMY  CLEAR     31  24  75 N8        30.12F WCI  23
SCHRIEVER AFB  FAIR      28  27  94 W12       30.14F WCI  18
ELLICOTT       FAIR     N/A N/A N/A W3        30.13F
FALCON         FAIR      44  19  36 NW6       30.16S
FORT CARSON    FAIR      28  25  91 S6        30.13F WCI  21
LIMON          FOG       26  26 100 S8        30.14F VSB 3/4 WCI  18
MONUMENT HILL  FAIR      45  21  39 SW12      30.16F
TRINIDAD       FAIR      43  21  41 W12       30.17F
$$

COZ042>045-048>051-090-091-131300-
...NORTHEAST COLORADO...

CITY           SKY/WX    TMP DP  RH WIND       PRES   REMARKS
GREELEY ARPT   CLOUDY    30  28  93 CALM      30.13S
AKRON          CLOUDY    29  29 100 S14       30.12F WCI  18
BURLINGTON     FOG       26  24  92 S17       30.20F VSB 1/2 WCI  13
WRAY           CLOUDY    29  29 100 SE12      30.21F FOG     WCI  19
STERLING       MOCLDY    32  30  93 S5        30.13F WCI  27
HOLYOKE        CLOUDY    32  30  93 S13       30.20F WCI  22
FORT MORGAN    FOG       28  28  97 W3        30.11F VSB 1/2
$$

COZ086-089-092>099-131300-
...SOUTHEAST COLORADO...

CITY           SKY/WX    TMP DP  RH WIND       PRES   REMARKS
PUEBLO         FOG       30  27  88 CALM      30.18F VSB 1
LA JUNTA       CLOUDY    28  26  92 N5        30.20F WCI  23
LAMAR          FAIR      28  26  92 SE9       30.19F WCI  19
SPRINGFIELD      N/A     29  26  89 S13       30.16F WCI  19
$$




USA.gov is the U.S. government's official web portal to all federal, state and local government web resources and services.